Regional Weather Roundup
Issued by NWS

Home | Current Version | Previous Version | Text Only | Print | Product List | Glossary On
Versions: 1 2 3 4 5 6 7 8 9 10 11 12 13 14 15 16 17 18 19 20 21 22 23 24 25 26 27 28 29 30 31 32 33 34 35 36 37 38 39 40 41 42 43 44 45 46 47 48 49 50
000
ASUS43 KMKX 282310
RWRWI

WISCONSIN REGIONAL WEATHER ROUNDUP
NATIONAL WEATHER SERVICE MILWAUKEE/SULLIVAN WI
600 PM CDT SAT MAR 28 2015

NOTE: "FAIR" INDICATES FEW OR NO CLOUDS BELOW 12,000 FEET WITH NO
SIGNIFICANT WEATHER AND/OR OBSTRUCTIONS TO VISIBILITY.

WIZ001-002-006>008-014>016-023>028-290000-
NORTHWEST WISCONSIN

CITY           SKY/WX    TMP DP  RH WIND       PRES   REMARKS
SUPERIOR ARPT  SUNNY     43  11  27 S14       30.03F
ASHLAND        SUNNY     43   7  22 SW14G23   30.06F
HAYWARD        SUNNY     41   7  24 SW16G25   30.07F
SIREN          SUNNY     41  12  30 S14G20    30.07F
CUMBERLAND     SUNNY     37  14  38 SW17      30.08F WCI  28
RICE LAKE      SUNNY     41   8  26 S12G17    30.12F
CHETEK         SUNNY     40   7  25 S13       30.11F WCI  33
LADYSMITH      SUNNY     41  11  29 S14G22    30.12F
EAU CLAIRE     SUNNY     40   6  24 SW13      30.13F WCI  32
MENOMONIE      SUNNY     40  12  31 S14       30.14S WCI  32
NEW RICHMOND   SUNNY     39  13  34 S16       30.11F WCI  30
OSCEOLA        SUNNY     41  15  34 S13G21    30.13S
$$

WIZ003>005-009-010-017-018-290000-
NORTH CENTRAL WISCONSIN

CITY           SKY/WX    TMP DP  RH WIND       PRES   REMARKS
MANITOWISH WTR SUNNY     38   8  28 SW8       30.06F WCI  32
ARBOR VITAE    SUNNY     39  13  34 S16       30.07F WCI  30
WOODRUFF       SUNNY     39  13  34 S16       30.07F WCI  30
RHINELANDER    SUNNY     37  10  32 SW12      30.11F WCI  29
EAGLE RIVER    SUNNY     37   5  26 SW13G18   30.08F WCI  28
LAND O LAKES   SUNNY     38   6  26 S12G17    30.08S WCI  31
PHILLIPS       SUNNY     38  10  31 SW12      30.08F WCI  30
TOMAHAWK       SUNNY     37  11  34 CALM      30.12F
MEDFORD        SUNNY     37  15  39 SW12      30.11F WCI  30
MERRILL        SUNNY     39  11  32 SW10      30.13F WCI  32
$$

WIZ029-030-035-036-043>047-290000-
CENTRAL WISCONSIN

CITY           SKY/WX    TMP DP  RH WIND       PRES   REMARKS
WAUSAU         SUNNY     39  10  30 S9        30.13F WCI  33
MOSINEE        SUNNY     37  10  32 SW10      30.15F WCI  30
MARSHFIELD     SUNNY     40  10  29 S13       30.14F WCI  32
STEVENS POINT  SUNNY     38   6  26 SW12      30.16F WCI  31
WAUPACA        SUNNY     43   5  21 S9        30.19S
WAUTOMA        SUNNY     41   8  25 S9        30.20F
WISC RAPIDS    SUNNY     40   6  24 S10       30.18F WCI  33
CAMP DOUGLAS   SUNNY     40  10  29 S8        30.18F WCI  34
$$

WIZ011>013-019>022-031-037>040-048>050-290000-
NORTHEAST WISCONSIN

CITY           SKY/WX    TMP DP  RH WIND       PRES   REMARKS
ANTIGO         SUNNY     36  15  42 SW10      30.14S WCI  28
SHAWANO        SUNNY     41  10  27 SW5       30.18F
OCONTO         SUNNY     38  12  34 SW8       30.20S WCI  32
STURGEON BAY   SUNNY     30  21  69 S15       30.24F WCI  19
GREEN BAY      SUNNY     38  16  40 SW10      30.21F WCI  31
MANITOWOC      SUNNY     31  23  72 S17       30.25F WCI  19
APPLETON       SUNNY     37   9  30 S8        30.21F WCI  31
CLINTONVILLE   SUNNY     41   9  26 S9G16     30.18F
OSHKOSH        SUNNY     38  12  34 SW12      30.22S WCI  30
$$

WIZ032>034-041-042-053>061-290000-
SOUTHWEST WISCONSIN

CITY           SKY/WX    TMP DP  RH WIND       PRES   REMARKS
LA CROSSE      SUNNY     42  13  30 SW10      30.19F
SPARTA         SUNNY     40   8  26 SW5       30.19F
VIROQUA        SUNNY     37  17  44 S8        30.18F WCI  31
BOSCOBEL       SUNNY     40  13  33 VRB5      30.21F
PRAIRIE DU CHI SUNNY     40  11  30 SE3       30.20F
PLATTEVILLE    SUNNY     39  14  36 SE10G16   30.21F WCI  32
$$

WIZ056-057-062-063-064-067-068-290000-
SOUTH CENTRAL WISCONSIN

CITY           SKY/WX    TMP DP  RH WIND       PRES   REMARKS
REEDSBURG      SUNNY     37  13  36 S12       30.20F WCI  30
BARABOO/DELLS  SUNNY     37   6  27 SW8       30.21S WCI  31
LONE ROCK      SUNNY     39  13  34 SW8       30.22F WCI  33
MINERAL POINT  SUNNY     37  12  35 S5        30.21S WCI  34
MADISON        SUNNY     37  11  34 SW8       30.23F WCI  31
MIDDLETON      SUNNY     39   9  29 SW10      30.23F WCI  33
WATERTOWN      SUNNY     37  12  35 S7        30.23F WCI  32
MONROE         SUNNY     37  18  44 S9        30.22F WCI  31
JANESVILLE     SUNNY     39   9  28 S6        30.24F WCI  35
$$

WIZ051-052-058>065-066-070>072-290000-
SOUTHEAST WISCONSIN

CITY           SKY/WX    TMP DP  RH WIND       PRES   REMARKS
MILWAUKEE      SUNNY     31  14  49 SE17      30.27S WCI  19
WAUKESHA       SUNNY     36   9  32 SW9       30.25S WCI  29
MILWAUKEE/TIMM NOT AVBL
RACINE         SUNNY     30  13  49 S13       30.30S WCI  20
BURLINGTON     SUNNY     37  11  35 W6        30.25F WCI  32
KENOSHA        SUNNY     32  13  45 SE10      30.28S WCI  24
FOND DU LAC    SUNNY     39  11  31 S9        30.22F WCI  33
SHEBOYGAN      SUNNY     32  19  58 S13       30.25S WCI  22
WEST BEND      SUNNY     34  18  51 SE12      30.23S WCI  25
JUNEAU         SUNNY     37  13  37 SW12      30.24S WCI  30
$$

LSZ147-162-290000-
LAKE SUPERIOR

STATION/POSITION TIME  TEMP    WIND        PRES    WAVE
                       AIR SEA DIR/SP/G            HT/PER
                 (UTC) (F)     (DEG/KT/KT) (MB)    (FT/S)
DEVILS ISLAND    2300   32      90/  9/  9 1018.7F
PORT WING        2200   40     220/ 11/ 24 1017.9
SAXON HARBOR     2200   45     190/  8/ 16 1017.9F
$$

LMZ867-665-643>646-290000-
LAKE MICHIGAN

STATION/POSITION TIME  TEMP    WIND        PRES    WAVE
                       AIR SEA DIR/SP/G            HT/PER
                 (UTC) (F)     (DEG/KT/KT) (MB)    (FT/S)
NORTHPORT PIER   2200   30     160/  9/ 17 1023.4F
KEWAUNEE LAKESHO 2200   31     180/ 17/ 21 1023.4F
SHEBOYGAN LAKESH 2300   30     170/ 17/ 19 1025.8F
PORT WASHINGTON  2200   32     160/ 13/ 15 1025.7F
MILWAUKEE LAKESH 2200   29     140/ 16/ 18   N/A
KENOSHA   LAKESH 2300   29     160/ 12/ 14 1025.7S
$$

TC  - TEMPERATURE IN CELSIUS
VSB - VISIBILITY IN STATUTE MILES
WCI - WIND CHILL INDEX
HX  - HEAT INDEX



USA.gov is the U.S. government's official web portal to all federal, state and local government web resources and services.